Time,TemperatureF,DewpointF,PressureIn,WindDirection,WindDirectionDegrees,WindSpeedMPH,WindSpeedGustMPH,Humidity,HourlyPrecipIn,Conditions,Clouds,dailyrainin,SoftwareType,DateUTC
2013-06-30 00:00:00,78.0,59.0,29.75,SSW,207,0.0,0.0,52,0.00,,CLR,0.00,VWS V14.00,2013-06-30 07:00:00,
2013-06-30 00:01:00,77.9,58.9,29.75,SSW,207,0.0,0.0,52,0.00,,CLR,0.00,VWS V14.00,2013-06-30 07:01:00,
2013-06-30 00:06:00,77.6,58.6,29.75,SSW,207,0.0,0.0,52,0.00,,CLR,0.00,VWS V14.00,2013-06-30 07:06:00,
2013-06-30 00:11:00,77.5,58.5,29.75,SSW,207,0.0,0.0,52,0.00,,CLR,0.00,VWS V14.00,2013-06-30 07:11:00,
2013-06-30 00:16:00,77.3,57.8,29.75,SSW,207,0.0,0.0,51,0.00,,CLR,0.00,VWS V14.00,2013-06-30 07:16:00,
2013-06-30 00:21:00,76.7,57.2,29.75,SSW,207,0.0,0.0,51,0.00,,CLR,0.00,VWS V14.00,2013-06-30 07:21:00,
2013-06-30 00:26:00,76.7,58.3,29.75,SSW,208,0.0,0.0,53,0.00,,CLR,0.00,VWS V14.00,2013-06-30 07:26:00,
2013-06-30 00:30:00,76.7,58.3,29.75,SSW,207,0.0,0.0,53,0.00,,CLR,0.00,VWS V14.00,2013-06-30 07:30:00,
2013-06-30 00:31:00,76.7,58.3,29.75,SSW,207,0.0,0.0,53,0.00,,CLR,0.00,VWS V14.00,2013-06-30 07:31:00,
2013-06-30 00:36:00,76.4,58.5,29.75,SSW,207,0.0,0.0,54,0.00,,CLR,0.00,VWS V14.00,2013-06-30 07:36:00,
2013-06-30 00:41:00,76.1,58.3,29.75,SSW,207,0.0,0.0,54,0.00,,CLR,0.00,VWS V14.00,2013-06-30 07:41:00,
2013-06-30 00:46:00,75.9,58.6,29.75,SSW,207,0.0,0.0,55,0.00,,CLR,0.00,VWS V14.00,2013-06-30 07:46:00,
2013-06-30 00:51:00,75.6,58.3,29.75,SSW,207,0.0,0.0,55,0.00,,CLR,0.00,VWS V14.00,2013-06-30 07:51:00,
2013-06-30 00:56:00,75.4,58.6,29.75,SSW,207,0.0,0.0,56,0.00,,CLR,0.00,VWS V14.00,2013-06-30 07:56:00,
2013-06-30 01:00:00,75.4,58.6,29.75,SSW,207,0.0,0.0,56,0.00,,CLR,0.00,VWS V14.00,2013-06-30 08:00:00,
2013-06-30 01:01:00,75.4,58.6,29.75,SSW,206,0.0,0.0,56,0.00,,CLR,0.00,VWS V14.00,2013-06-30 08:01:00,
2013-06-30 01:06:00,75.2,58.9,29.75,SSW,207,0.0,0.0,57,0.00,,CLR,0.00,VWS V14.00,2013-06-30 08:06:00,
2013-06-30 01:11:00,74.9,58.7,29.75,SSW,207,0.0,0.0,57,0.00,,CLR,0.00,VWS V14.00,2013-06-30 08:11:00,
2013-06-30 01:16:00,74.9,58.7,29.74,SSW,207,0.0,0.0,57,0.00,,CLR,0.00,VWS V14.00,2013-06-30 08:16:00,
2013-06-30 01:21:00,74.8,58.6,29.74,SSW,206,0.0,0.0,57,0.00,,CLR,0.00,VWS V14.00,2013-06-30 08:21:00,
2013-06-30 01:26:00,74.7,58.0,29.74,SSW,207,0.0,0.0,56,0.00,,CLR,0.00,VWS V14.00,2013-06-30 08:26:00,
2013-06-30 01:30:00,74.5,57.8,29.74,SSW,207,0.0,0.0,56,0.00,,CLR,0.00,VWS V14.00,2013-06-30 08:30:00,
2013-06-30 01:31:00,74.4,57.2,29.74,SSW,207,0.0,0.0,55,0.00,,CLR,0.00,VWS V14.00,2013-06-30 08:31:00,
2013-06-30 01:36:00,74.4,57.2,29.74,SSW,207,0.0,0.0,55,0.00,,CLR,0.00,VWS V14.00,2013-06-30 08:36:00,
2013-06-30 01:41:00,74.1,56.9,29.74,SSW,207,0.0,0.0,55,0.00,,CLR,0.00,VWS V14.00,2013-06-30 08:41:00,
2013-06-30 01:46:00,73.9,56.7,29.74,SSW,206,0.0,0.0,55,0.00,,CLR,0.00,VWS V14.00,2013-06-30 08:46:00,
2013-06-30 01:51:00,73.9,56.7,29.74,SSW,207,0.0,0.0,55,0.00,,CLR,0.00,VWS V14.00,2013-06-30 08:51:00,
2013-06-30 01:56:00,73.7,56.5,29.74,SSW,207,0.0,0.0,55,0.00,,CLR,0.00,VWS V14.00,2013-06-30 08:56:00,
2013-06-30 02:00:00,73.3,56.2,29.74,SSW,207,0.0,0.0,55,0.00,,CLR,0.00,VWS V14.00,2013-06-30 09:00:00,
2013-06-30 02:01:00,73.5,56.4,29.74,SSW,207,0.0,0.0,55,0.00,,CLR,0.00,VWS V14.00,2013-06-30 09:01:00,
2013-06-30 02:06:00,73.3,56.2,29.74,SSW,208,0.0,0.0,55,0.00,,CLR,0.00,VWS V14.00,2013-06-30 09:06:00,
2013-06-30 02:11:00,73.3,56.7,29.74,SSW,207,0.0,0.0,56,0.00,,CLR,0.00,VWS V14.00,2013-06-30 09:11:00,
2013-06-30 02:16:00,73.0,56.4,29.74,SSW,208,0.0,0.0,56,0.00,,CLR,0.00,VWS V14.00,2013-06-30 09:16:00,
2013-06-30 02:21:00,73.2,56.1,29.74,SSW,207,0.0,0.0,55,0.00,,CLR,0.00,VWS V14.00,2013-06-30 09:21:00,
2013-06-30 02:26:00,73.1,56.5,29.74,SSW,207,0.0,0.0,56,0.00,,CLR,0.00,VWS V14.00,2013-06-30 09:26:00,
2013-06-30 02:30:00,72.9,56.3,29.73,SSW,206,0.0,0.0,56,0.00,,CLR,0.00,VWS V14.00,2013-06-30 09:30:00,
2013-06-30 02:31:00,72.7,56.1,29.74,SSW,207,0.0,0.0,56,0.00,,CLR,0.00,VWS V14.00,2013-06-30 09:31:00,
2013-06-30 02:36:00,72.7,56.6,29.74,SSW,208,0.0,0.0,57,0.00,,CLR,0.00,VWS V14.00,2013-06-30 09:36:00,
2013-06-30 02:41:00,72.6,56.5,29.73,SSW,207,0.0,0.0,57,0.00,,CLR,0.00,VWS V14.00,2013-06-30 09:41:00,
2013-06-30 02:46:00,73.0,56.4,29.73,SSW,207,0.0,0.0,56,0.00,,CLR,0.00,VWS V14.00,2013-06-30 09:46:00,
2013-06-30 02:51:00,73.0,56.9,29.74,SSW,207,0.0,0.0,57,0.00,,CLR,0.00,VWS V14.00,2013-06-30 09:51:00,
2013-06-30 02:56:00,72.5,56.4,29.73,SSW,207,0.0,0.0,57,0.00,,CLR,0.00,VWS V14.00,2013-06-30 09:56:00,
2013-06-30 03:00:00,72.4,56.8,29.73,SSW,207,0.0,0.0,58,0.00,,CLR,0.00,VWS V14.00,2013-06-30 10:00:00,
2013-06-30 03:01:00,72.3,56.7,29.74,SSW,207,0.0,0.0,58,0.00,,CLR,0.00,VWS V14.00,2013-06-30 10:01:00,
2013-06-30 03:06:00,72.1,57.0,29.73,SSW,207,0.0,0.0,59,0.00,,CLR,0.00,VWS V14.00,2013-06-30 10:06:00,
2013-06-30 03:11:00,72.3,58.1,29.73,SSW,207,0.0,0.0,61,0.00,,CLR,0.00,VWS V14.00,2013-06-30 10:11:00,
2013-06-30 03:16:00,72.0,58.7,29.73,SSW,208,0.0,0.0,63,0.00,,CLR,0.00,VWS V14.00,2013-06-30 10:16:00,
2013-06-30 03:21:00,71.7,58.5,29.73,SSW,208,0.0,0.0,63,0.00,,CLR,0.00,VWS V14.00,2013-06-30 10:21:00,
2013-06-30 03:26:00,71.7,58.9,29.73,SSW,207,0.0,0.0,64,0.00,,CLR,0.00,VWS V14.00,2013-06-30 10:26:00,
2013-06-30 03:30:00,71.4,58.6,29.73,SSW,207,0.0,0.0,64,0.00,,CLR,0.00,VWS V14.00,2013-06-30 10:30:00,
2013-06-30 03:31:00,71.1,58.8,29.73,SSW,207,0.0,0.0,65,0.00,,CLR,0.00,VWS V14.00,2013-06-30 10:31:00,
2013-06-30 03:36:00,71.0,58.7,29.73,SSW,207,0.0,0.0,65,0.00,,CLR,0.00,VWS V14.00,2013-06-30 10:36:00,
2013-06-30 03:41:00,70.8,58.9,29.73,SSW,207,0.0,0.0,66,0.00,,CLR,0.00,VWS V14.00,2013-06-30 10:41:00,
2013-06-30 03:46:00,70.5,59.0,29.73,SSW,207,0.0,0.0,67,0.00,,CLR,0.00,VWS V14.00,2013-06-30 10:46:00,
2013-06-30 03:51:00,70.2,58.7,29.73,SSW,207,0.0,0.0,67,0.00,,CLR,0.00,VWS V14.00,2013-06-30 10:51:00,
2013-06-30 03:56:00,70.3,58.8,29.73,SSW,207,0.0,0.0,67,0.00,,CLR,0.00,VWS V14.00,2013-06-30 10:56:00,
2013-06-30 04:00:00,70.1,58.7,29.73,SSW,207,0.0,0.0,67,0.00,,CLR,0.00,VWS V14.00,2013-06-30 11:00:00,
2013-06-30 04:01:00,69.9,58.5,29.73,SSW,207,0.0,0.0,67,0.00,,CLR,0.00,VWS V14.00,2013-06-30 11:01:00,
2013-06-30 04:06:00,69.9,58.9,29.73,SSW,207,0.0,0.0,68,0.00,,CLR,0.00,VWS V14.00,2013-06-30 11:06:00,
2013-06-30 04:11:00,69.7,58.7,29.73,SSW,206,0.0,0.0,68,0.00,,CLR,0.00,VWS V14.00,2013-06-30 11:11:00,
2013-06-30 04:16:00,69.5,58.9,29.73,SSW,207,0.0,0.0,69,0.00,,CLR,0.00,VWS V14.00,2013-06-30 11:16:00,
2013-06-30 04:21:00,69.5,58.9,29.73,SSW,207,0.0,0.0,69,0.00,,CLR,0.00,VWS V14.00,2013-06-30 11:21:00,
2013-06-30 04:26:00,69.5,58.9,29.73,SSW,207,0.0,0.0,69,0.00,,CLR,0.00,VWS V14.00,2013-06-30 11:26:00,
2013-06-30 04:30:00,69.3,59.1,29.73,SSW,207,0.0,0.0,70,0.00,,CLR,0.00,VWS V14.00,2013-06-30 11:30:00,
2013-06-30 04:31:00,69.5,59.3,29.73,SSW,207,0.0,0.0,70,0.00,,CLR,0.00,VWS V14.00,2013-06-30 11:31:00,
2013-06-30 04:36:00,69.4,59.2,29.72,SSW,207,0.0,0.0,70,0.00,,CLR,0.00,VWS V14.00,2013-06-30 11:36:00,
2013-06-30 04:41:00,69.0,58.8,29.73,SSW,207,0.0,0.0,70,0.00,,CLR,0.00,VWS V14.00,2013-06-30 11:41:00,
2013-06-30 04:46:00,68.7,58.5,29.72,SSW,207,0.0,0.0,70,0.00,,CLR,0.00,VWS V14.00,2013-06-30 11:46:00,
2013-06-30 04:51:00,68.8,58.6,29.73,SSW,207,0.0,0.0,70,0.00,,CLR,0.00,VWS V14.00,2013-06-30 11:51:00,
2013-06-30 04:56:00,68.6,58.8,29.73,SSW,207,0.0,0.0,71,0.00,,CLR,0.00,VWS V14.00,2013-06-30 11:56:00,
2013-06-30 05:00:00,68.5,58.7,29.73,SSW,207,0.0,0.0,71,0.00,,CLR,0.00,VWS V14.00,2013-06-30 12:00:00,
2013-06-30 05:01:00,68.6,58.8,29.73,SSW,207,0.0,0.0,71,0.00,,CLR,0.00,VWS V14.00,2013-06-30 12:01:00,
2013-06-30 05:06:00,68.1,58.3,29.73,SSW,207,0.0,0.0,71,0.00,,CLR,0.00,VWS V14.00,2013-06-30 12:06:00,
2013-06-30 05:11:00,68.4,59.0,29.73,SSW,207,0.0,0.0,72,0.00,,CLR,0.00,VWS V14.00,2013-06-30 12:11:00,
2013-06-30 05:16:00,68.0,58.7,29.73,SSW,207,0.0,0.0,72,0.00,,CLR,0.00,VWS V14.00,2013-06-30 12:16:00,
2013-06-30 05:21:00,68.1,58.7,29.73,SSW,207,0.0,0.0,72,0.00,,CLR,0.00,VWS V14.00,2013-06-30 12:21:00,
2013-06-30 05:26:00,68.0,59.0,29.73,SSW,207,0.0,0.0,73,0.00,,CLR,0.00,VWS V14.00,2013-06-30 12:26:00,
2013-06-30 05:30:00,67.5,58.2,29.73,SSW,207,0.0,0.0,72,0.00,,CLR,0.00,VWS V14.00,2013-06-30 12:30:00,
2013-06-30 05:31:00,67.9,58.9,29.73,SSW,207,0.0,0.0,73,0.00,,CLR,0.00,VWS V14.00,2013-06-30 12:31:00,
2013-06-30 05:36:00,67.7,58.7,29.73,SSW,207,0.0,0.0,73,0.00,,CLR,0.00,VWS V14.00,2013-06-30 12:36:00,
2013-06-30 05:41:00,67.5,58.5,29.73,SSW,207,0.0,0.0,73,0.00,,CLR,0.00,VWS V14.00,2013-06-30 12:41:00,
2013-06-30 05:46:00,67.5,58.5,29.74,SSW,207,0.0,0.0,73,0.00,,CLR,0.00,VWS V14.00,2013-06-30 12:46:00,
2013-06-30 05:51:00,67.0,58.1,29.74,SSW,207,0.0,0.0,73,0.00,,CLR,0.00,VWS V14.00,2013-06-30 12:51:00,
2013-06-30 05:56:00,67.0,58.1,29.74,SSW,207,0.0,0.0,73,0.00,,CLR,0.00,VWS V14.00,2013-06-30 12:56:00,
2013-06-30 06:00:00,67.1,58.2,29.74,SSW,207,0.0,0.0,73,0.00,,CLR,0.00,VWS V14.00,2013-06-30 13:00:00,
2013-06-30 06:01:00,67.1,58.5,29.74,SSW,208,0.0,0.0,74,0.00,,CLR,0.00,VWS V14.00,2013-06-30 13:01:00,
2013-06-30 06:06:00,66.8,58.6,29.74,SSW,207,0.0,0.0,75,0.00,,CLR,0.00,VWS V14.00,2013-06-30 13:06:00,
2013-06-30 06:11:00,66.8,58.3,29.74,SSW,207,0.0,0.0,74,0.00,,CLR,0.00,VWS V14.00,2013-06-30 13:11:00,
2013-06-30 06:16:00,66.9,58.3,29.74,SSW,207,0.0,0.0,74,0.00,,CLR,0.00,VWS V14.00,2013-06-30 13:16:00,
2013-06-30 06:21:00,66.7,58.2,29.74,SSW,207,0.0,0.0,74,0.00,,CLR,0.00,VWS V14.00,2013-06-30 13:21:00,
2013-06-30 06:26:00,66.7,57.8,29.74,SSW,207,0.0,0.0,73,0.00,,CLR,0.00,VWS V14.00,2013-06-30 13:26:00,
2013-06-30 06:30:00,66.8,58.3,29.74,SSW,207,0.0,0.0,74,0.00,,CLR,0.00,VWS V14.00,2013-06-30 13:30:00,
2013-06-30 06:31:00,67.0,58.5,29.74,SSW,207,0.0,0.0,74,0.00,,CLR,0.00,VWS V14.00,2013-06-30 13:31:00,
2013-06-30 06:36:00,66.6,58.1,29.74,SSW,207,0.0,0.0,74,0.00,,CLR,0.00,VWS V14.00,2013-06-30 13:36:00,
2013-06-30 06:41:00,66.9,58.3,29.74,SSW,207,0.0,0.0,74,0.00,,CLR,0.00,VWS V14.00,2013-06-30 13:41:00,
2013-06-30 06:46:00,67.0,58.5,29.75,SSW,207,0.0,0.0,74,0.00,,CLR,0.00,VWS V14.00,2013-06-30 13:46:00,
2013-06-30 06:51:00,66.9,58.3,29.74,SSW,207,0.0,0.0,74,0.00,,CLR,0.00,VWS V14.00,2013-06-30 13:51:00,
2013-06-30 06:56:00,67.0,58.1,29.75,SSW,207,0.0,0.0,73,0.00,,CLR,0.00,VWS V14.00,2013-06-30 13:56:00,
2013-06-30 07:00:00,67.0,58.8,29.75,SSW,207,0.0,0.0,75,0.00,,CLR,0.00,VWS V14.00,2013-06-30 14:00:00,
2013-06-30 07:01:00,67.1,58.5,29.75,SSW,207,0.0,0.0,74,0.00,,CLR,0.00,VWS V14.00,2013-06-30 14:01:00,
2013-06-30 07:06:00,67.4,58.8,29.75,SSW,207,0.0,0.0,74,0.00,,CLR,0.00,VWS V14.00,2013-06-30 14:06:00,
2013-06-30 07:11:00,67.3,58.4,29.75,SSW,207,0.0,0.0,73,0.00,,CLR,0.00,VWS V14.00,2013-06-30 14:11:00,
2013-06-30 07:16:00,67.7,59.1,29.74,SSW,207,0.0,0.0,74,0.00,,CLR,0.00,VWS V14.00,2013-06-30 14:16:00,
2013-06-30 07:21:00,67.6,58.3,29.75,SSW,207,0.0,0.0,72,0.00,,CLR,0.00,VWS V14.00,2013-06-30 14:21:00,
2013-06-30 07:26:00,68.0,58.7,29.75,SSW,207,0.0,0.0,72,0.00,,CLR,0.00,VWS V14.00,2013-06-30 14:26:00,
2013-06-30 07:30:00,68.1,58.3,29.75,SSW,207,0.0,0.0,71,0.00,,CLR,0.00,VWS V14.00,2013-06-30 14:30:00,
2013-06-30 07:31:00,68.1,58.3,29.75,SSW,207,0.0,0.0,71,0.00,,CLR,0.00,VWS V14.00,2013-06-30 14:31:00,
2013-06-30 07:36:00,68.3,58.5,29.75,SSW,206,0.0,0.0,71,0.00,,CLR,0.00,VWS V14.00,2013-06-30 14:36:00,
2013-06-30 07:41:00,68.3,58.5,29.75,SSW,207,0.0,0.0,71,0.00,,CLR,0.00,VWS V14.00,2013-06-30 14:41:00,
2013-06-30 07:46:00,68.6,58.0,29.75,SSW,207,0.0,0.0,69,0.00,,CLR,0.00,VWS V14.00,2013-06-30 14:46:00,
2013-06-30 07:51:00,69.0,58.4,29.75,SSW,207,0.0,0.0,69,0.00,,CLR,0.00,VWS V14.00,2013-06-30 14:51:00,
2013-06-30 07:56:00,69.1,58.5,29.75,SSW,207,0.0,0.0,69,0.00,,CLR,0.00,VWS V14.00,2013-06-30 14:56:00,
2013-06-30 08:00:00,69.3,58.3,29.75,SSW,207,0.0,0.0,68,0.00,,CLR,0.00,VWS V14.00,2013-06-30 15:00:00,
2013-06-30 08:01:00,69.6,59.0,29.75,SSW,207,0.0,0.0,69,0.00,,CLR,0.00,VWS V14.00,2013-06-30 15:01:00,
2013-06-30 08:06:00,69.8,58.4,29.75,SSW,207,0.0,0.0,67,0.00,,CLR,0.00,VWS V14.00,2013-06-30 15:06:00,
2013-06-30 08:11:00,70.3,58.8,29.76,NW,319,0.0,0.0,67,0.00,,CLR,0.00,VWS V14.00,2013-06-30 15:11:00,
2013-06-30 08:16:00,70.6,58.3,29.75,North,0,0.0,0.0,65,0.00,,CLR,0.00,VWS V14.00,2013-06-30 15:16:00,
2013-06-30 08:21:00,71.0,59.1,29.76,North,0,0.0,0.0,66,0.00,,CLR,0.00,VWS V14.00,2013-06-30 15:21:00,
2013-06-30 08:26:00,71.1,58.3,29.76,North,0,0.0,0.0,64,0.00,,CLR,0.00,VWS V14.00,2013-06-30 15:26:00,
2013-06-30 08:30:00,71.3,58.1,29.75,North,0,0.0,0.0,63,0.00,,CLR,0.00,VWS V14.00,2013-06-30 15:30:00,
2013-06-30 08:31:00,71.7,58.9,29.75,North,0,0.0,0.0,64,0.00,,CLR,0.00,VWS V14.00,2013-06-30 15:31:00,
2013-06-30 08:36:00,72.2,58.9,29.75,North,0,0.0,0.0,63,0.00,,CLR,0.00,VWS V14.00,2013-06-30 15:36:00,
2013-06-30 08:41:00,72.5,58.8,29.75,North,350,0.0,0.0,62,0.00,,CLR,0.00,VWS V14.00,2013-06-30 15:41:00,
2013-06-30 08:46:00,72.8,59.0,29.75,NNW,346,0.0,0.0,62,0.00,,CLR,0.00,VWS V14.00,2013-06-30 15:46:00,
2013-06-30 08:51:00,73.2,59.0,29.76,NNW,346,0.0,0.0,61,0.00,,CLR,0.00,VWS V14.00,2013-06-30 15:51:00,
2013-06-30 08:56:00,74.0,59.2,29.76,NNW,346,0.0,0.0,60,0.00,,CLR,0.00,VWS V14.00,2013-06-30 15:56:00,
2013-06-30 09:00:00,74.0,59.2,29.76,NNW,346,0.0,0.0,60,0.00,,CLR,0.00,VWS V14.00,2013-06-30 16:00:00,
2013-06-30 09:01:00,74.2,59.4,29.76,NNW,343,0.0,0.0,60,0.00,,CLR,0.00,VWS V14.00,2013-06-30 16:01:00,
2013-06-30 09:06:00,74.6,59.3,29.75,NW,317,0.0,0.0,59,0.00,,CLR,0.00,VWS V14.00,2013-06-30 16:06:00,
2013-06-30 09:11:00,75.0,59.7,29.75,NW,316,0.0,0.0,59,0.00,,CLR,0.00,VWS V14.00,2013-06-30 16:11:00,
2013-06-30 09:16:00,75.7,59.9,29.75,NW,317,0.0,0.0,58,0.00,,CLR,0.00,VWS V14.00,2013-06-30 16:16:00,
2013-06-30 09:21:00,75.9,59.6,29.75,NW,317,0.0,0.0,57,0.00,,CLR,0.00,VWS V14.00,2013-06-30 16:21:00,
2013-06-30 09:26:00,76.5,60.2,29.75,NW,307,0.0,0.0,57,0.00,,CLR,0.00,VWS V14.00,2013-06-30 16:26:00,
2013-06-30 09:30:00,76.6,60.2,29.75,NW,306,0.0,0.0,57,0.00,,CLR,0.00,VWS V14.00,2013-06-30 16:30:00,
2013-06-30 09:31:00,77.0,60.6,29.75,NW,307,0.0,0.0,57,0.00,,CLR,0.00,VWS V14.00,2013-06-30 16:31:00,
2013-06-30 09:36:00,77.3,59.9,29.75,WNW,296,0.0,0.0,55,0.00,,CLR,0.00,VWS V14.00,2013-06-30 16:36:00,
2013-06-30 09:41:00,77.7,60.8,29.74,WNW,296,0.0,0.0,56,0.00,,CLR,0.00,VWS V14.00,2013-06-30 16:41:00,
2013-06-30 09:46:00,78.0,59.5,29.75,WNW,296,0.0,0.0,53,0.00,,CLR,0.00,VWS V14.00,2013-06-30 16:46:00,
2013-06-30 09:51:00,78.7,60.2,29.75,WNW,296,0.0,0.0,53,0.00,,CLR,0.00,VWS V14.00,2013-06-30 16:51:00,
2013-06-30 09:56:00,79.0,60.4,29.74,WNW,296,0.0,0.0,53,0.00,,CLR,0.00,VWS V14.00,2013-06-30 16:56:00,
2013-06-30 10:00:00,79.2,60.1,29.74,WNW,296,0.0,0.0,52,0.00,,CLR,0.00,VWS V14.00,2013-06-30 17:00:00,
2013-06-30 10:01:00,79.8,60.6,29.74,WNW,296,0.0,0.0,52,0.00,,CLR,0.00,VWS V14.00,2013-06-30 17:01:00,
2013-06-30 10:06:00,79.9,60.7,29.74,WNW,295,0.0,0.0,52,0.00,,CLR,0.00,VWS V14.00,2013-06-30 17:06:00,
2013-06-30 10:11:00,80.6,60.3,29.74,WNW,296,0.0,0.0,50,0.00,,CLR,0.00,VWS V14.00,2013-06-30 17:11:00,
2013-06-30 10:16:00,81.4,61.0,29.74,WNW,296,0.0,0.0,50,0.00,,CLR,0.00,VWS V14.00,2013-06-30 17:16:00,
2013-06-30 10:21:00,81.7,60.7,29.74,WNW,301,0.0,0.0,49,0.00,,CLR,0.00,VWS V14.00,2013-06-30 17:21:00,
2013-06-30 10:26:00,82.1,61.1,29.74,WNW,301,0.0,0.0,49,0.00,,CLR,0.00,VWS V14.00,2013-06-30 17:26:00,
2013-06-30 10:30:00,82.1,61.6,29.74,WNW,301,0.0,0.0,50,0.00,,CLR,0.00,VWS V14.00,2013-06-30 17:30:00,
2013-06-30 10:31:00,82.2,61.2,29.74,WNW,301,0.0,0.0,49,0.00,,CLR,0.00,VWS V14.00,2013-06-30 17:31:00,
2013-06-30 10:36:00,82.8,62.3,29.74,WNW,295,0.0,0.0,50,0.00,,CLR,0.00,VWS V14.00,2013-06-30 17:36:00,
2013-06-30 10:41:00,83.3,61.6,29.74,NW,310,0.0,0.0,48,0.00,,CLR,0.00,VWS V14.00,2013-06-30 17:41:00,
2013-06-30 10:46:00,83.6,61.8,29.74,NW,308,0.0,0.0,48,0.00,,CLR,0.00,VWS V14.00,2013-06-30 17:46:00,
2013-06-30 10:51:00,84.3,63.1,29.74,NW,311,0.0,0.0,49,0.00,,CLR,0.00,VWS V14.00,2013-06-30 17:51:00,
2013-06-30 10:56:00,84.7,62.9,29.74,NW,318,0.0,0.0,48,0.00,,CLR,0.00,VWS V14.00,2013-06-30 17:56:00,
2013-06-30 11:00:00,85.1,62.6,29.74,North,0,0.0,0.0,47,0.00,,CLR,0.00,VWS V14.00,2013-06-30 18:00:00,
2013-06-30 11:01:00,85.3,62.8,29.74,NNW,329,0.0,0.0,47,0.00,,CLR,0.00,VWS V14.00,2013-06-30 18:01:00,
2013-06-30 11:06:00,85.8,62.7,29.74,NNW,332,0.0,0.0,46,0.00,,CLR,0.00,VWS V14.00,2013-06-30 18:06:00,
2013-06-30 11:11:00,86.3,61.8,29.74,North,2,0.0,0.0,44,0.00,,CLR,0.00,VWS V14.00,2013-06-30 18:11:00,
2013-06-30 11:16:00,86.9,61.7,29.74,North,350,0.0,0.0,43,0.00,,CLR,0.00,VWS V14.00,2013-06-30 18:16:00,
2013-06-30 11:21:00,86.9,61.7,29.74,North,11,0.0,0.0,43,0.00,,CLR,0.00,VWS V14.00,2013-06-30 18:21:00,
2013-06-30 11:26:00,87.4,62.2,29.73,NNE,12,0.0,5.0,43,0.00,,CLR,0.00,VWS V14.00,2013-06-30 18:26:00,
2013-06-30 11:30:00,87.5,62.9,29.73,North,4,0.0,5.0,44,0.00,,CLR,0.00,VWS V14.00,2013-06-30 18:30:00,
2013-06-30 11:31:00,87.6,63.0,29.73,North,0,0.0,0.0,44,0.00,,CLR,0.00,VWS V14.00,2013-06-30 18:31:00,
2013-06-30 11:36:00,88.3,60.9,29.74,North,1,0.0,2.0,40,0.00,,CLR,0.00,VWS V14.00,2013-06-30 18:36:00,
2013-06-30 11:41:00,88.8,62.1,29.73,North,357,0.0,2.0,41,0.00,,CLR,0.00,VWS V14.00,2013-06-30 18:41:00,
2013-06-30 11:46:00,89.2,63.1,29.73,North,359,0.0,2.0,42,0.00,,CLR,0.00,VWS V14.00,2013-06-30 18:46:00,
2013-06-30 11:51:00,89.6,62.1,29.73,North,353,1.0,2.0,40,0.00,,CLR,0.00,VWS V14.00,2013-06-30 18:51:00,
2013-06-30 11:56:00,89.9,61.7,29.73,NNE,16,0.0,3.0,39,0.00,,CLR,0.00,VWS V14.00,2013-06-30 18:56:00,
2013-06-30 12:00:00,90.3,61.3,29.73,North,2,1.0,3.0,38,0.00,,CLR,0.00,VWS V14.00,2013-06-30 19:00:00,
2013-06-30 12:01:00,90.5,60.7,29.73,North,1,0.0,1.0,37,0.00,,CLR,0.00,VWS V14.00,2013-06-30 19:01:00,
2013-06-30 12:06:00,91.2,61.3,29.72,NNW,348,1.0,3.0,37,0.00,,CLR,0.00,VWS V14.00,2013-06-30 19:06:00,
2013-06-30 12:11:00,91.4,61.5,29.72,North,351,0.0,4.0,37,0.00,,CLR,0.00,VWS V14.00,2013-06-30 19:11:00,
2013-06-30 12:16:00,91.5,60.8,29.73,North,0,0.0,6.0,36,0.00,,CLR,0.00,VWS V14.00,2013-06-30 19:16:00,
2013-06-30 12:21:00,92.2,61.4,29.72,North,4,0.0,6.0,36,0.00,,CLR,0.00,VWS V14.00,2013-06-30 19:21:00,
2013-06-30 12:26:00,92.5,61.7,29.72,NNE,27,0.0,6.0,36,0.00,,CLR,0.00,VWS V14.00,2013-06-30 19:26:00,
2013-06-30 12:30:00,92.8,62.0,29.73,North,0,0.0,6.0,36,0.00,,CLR,0.00,VWS V14.00,2013-06-30 19:30:00,
2013-06-30 12:31:00,92.8,62.7,29.72,NE,37,0.0,1.0,37,0.00,,CLR,0.00,VWS V14.00,2013-06-30 19:31:00,
2013-06-30 12:36:00,93.3,61.6,29.72,NW,323,0.0,4.0,35,0.00,,CLR,0.00,VWS V14.00,2013-06-30 19:36:00,
2013-06-30 12:41:00,93.5,61.0,29.72,North,359,0.0,4.0,34,0.00,,CLR,0.00,VWS V14.00,2013-06-30 19:41:00,
2013-06-30 12:46:00,93.8,62.0,29.72,North,0,0.0,4.0,35,0.00,,CLR,0.00,VWS V14.00,2013-06-30 19:46:00,
2013-06-30 12:51:00,93.9,61.3,29.71,NW,314,0.0,6.0,34,0.00,,CLR,0.00,VWS V14.00,2013-06-30 19:51:00,
2013-06-30 12:56:00,94.6,62.7,29.72,NW,316,1.0,6.0,35,0.00,,CLR,0.00,VWS V14.00,2013-06-30 19:56:00,
2013-06-30 13:00:00,94.9,63.0,29.71,NNW,343,3.0,6.0,35,0.00,,CLR,0.00,VWS V14.00,2013-06-30 20:00:00,
2013-06-30 13:01:00,95.3,61.7,29.72,North,0,0.0,5.0,33,0.00,,CLR,0.00,VWS V14.00,2013-06-30 20:01:00,
2013-06-30 13:06:00,95.6,61.9,29.72,NNW,338,0.0,5.0,33,0.00,,CLR,0.00,VWS V14.00,2013-06-30 20:06:00,
2013-06-30 13:11:00,95.7,62.0,29.72,NNW,346,0.0,5.0,33,0.00,,CLR,0.00,VWS V14.00,2013-06-30 20:11:00,
2013-06-30 13:16:00,96.3,62.5,29.71,NNW,335,0.0,5.0,33,0.00,,CLR,0.00,VWS V14.00,2013-06-30 20:16:00,
2013-06-30 13:21:00,96.7,61.1,29.71,North,359,0.0,5.0,31,0.00,,CLR,0.00,VWS V14.00,2013-06-30 20:21:00,
2013-06-30 13:26:00,97.0,61.4,29.71,North,0,0.0,5.0,31,0.00,,CLR,0.00,VWS V14.00,2013-06-30 20:26:00,
2013-06-30 13:30:00,97.3,62.5,29.71,North,0,0.0,5.0,32,0.00,,CLR,0.00,VWS V14.00,2013-06-30 20:30:00,
2013-06-30 13:31:00,97.9,62.2,29.71,North,0,0.0,1.0,31,0.00,,CLR,0.00,VWS V14.00,2013-06-30 20:31:00,
2013-06-30 13:36:00,99.4,62.5,29.71,West,278,0.0,2.0,30,0.00,,CLR,0.00,VWS V14.00,2013-06-30 20:36:00,
2013-06-30 13:41:00,99.7,61.8,29.70,SW,214,0.0,2.0,29,0.00,,CLR,0.00,VWS V14.00,2013-06-30 20:41:00,
2013-06-30 13:46:00,99.9,62.0,29.71,SW,215,0.0,2.0,29,0.00,,CLR,0.00,VWS V14.00,2013-06-30 20:46:00,
2013-06-30 13:51:00,99.9,61.0,29.71,SW,215,0.0,2.0,28,0.00,,CLR,0.00,VWS V14.00,2013-06-30 20:51:00,
2013-06-30 13:56:00,100.4,63.4,29.71,SSW,211,0.0,2.0,30,0.00,,CLR,0.00,VWS V14.00,2013-06-30 20:56:00,
2013-06-30 14:00:00,94.9,63.0,29.71,NNW,343,3.0,6.0,35,0.00,,BKN025,0.00,VWS V15.00,2013-06-30 21:00:00,
2013-06-30 14:01:00,100.5,61.5,29.70,SSW,212,0.0,0.0,28,0.00,,CLR,0.00,VWS V14.00,2013-06-30 21:01:00,
2013-06-30 14:06:00,102.1,61.8,29.70,SSW,213,0.0,2.0,27,0.00,,CLR,0.00,VWS V14.00,2013-06-30 21:06:00,
2013-06-30 14:11:00,102.4,62.1,29.70,WSW,256,0.0,5.0,27,0.00,,CLR,0.00,VWS V14.00,2013-06-30 21:11:00,
2013-06-30 14:16:00,102.3,62.0,29.71,North,1,1.0,5.0,27,0.00,,CLR,0.00,VWS V14.00,2013-06-30 21:16:00,
2013-06-30 14:21:00,102.2,61.9,29.70,NNW,347,0.0,5.0,27,0.00,,CLR,0.00,VWS V14.00,2013-06-30 21:21:00,
2013-06-30 14:26:00,102.0,61.7,29.70,NNW,338,2.0,5.0,27,0.00,,CLR,0.00,VWS V14.00,2013-06-30 21:26:00,
2013-06-30 14:30:00,102.3,62.0,29.71,North,7,2.0,5.0,27,0.00,,CLR,0.00,VWS V14.00,2013-06-30 21:30:00,
2013-06-30 14:31:00,102.4,62.1,29.70,North,0,0.0,3.0,27,0.00,,CLR,0.00,VWS V14.00,2013-06-30 21:31:00,
2013-06-30 14:36:00,103.0,61.5,29.70,NNW,339,0.0,3.0,26,0.00,,CLR,0.00,VWS V14.00,2013-06-30 21:36:00,
2013-06-30 14:41:00,103.6,63.1,29.70,NNW,341,2.0,4.0,27,0.00,,CLR,0.00,VWS V14.00,2013-06-30 21:41:00,
2013-06-30 14:46:00,103.2,62.8,29.70,NW,318,0.0,4.0,27,0.00,,CLR,0.00,VWS V14.00,2013-06-30 21:46:00,
2013-06-30 14:51:00,103.3,61.8,29.70,NNW,336,1.0,4.0,26,0.00,,CLR,0.00,VWS V14.00,2013-06-30 21:51:00,
2013-06-30 14:56:00,103.7,62.1,29.70,NE,41,1.0,4.0,26,0.00,,CLR,0.00,VWS V14.00,2013-06-30 21:56:00,
2013-06-30 15:00:00,103.9,61.2,29.70,North,0,2.0,6.0,25,0.00,,CLR,0.00,VWS V14.00,2013-06-30 22:00:00,
2013-06-30 15:01:00,103.8,61.1,29.70,North,356,0.0,6.0,25,0.00,,CLR,0.00,VWS V14.00,2013-06-30 22:01:00,
2013-06-30 15:06:00,103.8,63.3,29.70,North,356,0.0,6.0,27,0.00,,CLR,0.00,VWS V14.00,2013-06-30 22:06:00,
2013-06-30 15:12:00,104.3,61.5,29.70,North,6,0.0,6.0,25,0.00,,CLR,0.00,VWS V14.00,2013-06-30 22:12:00,
2013-06-30 15:16:00,104.3,61.5,29.70,North,357,3.0,6.0,25,0.00,,CLR,0.00,VWS V14.00,2013-06-30 22:16:00,
2013-06-30 15:22:00,104.6,61.8,29.70,North,3,3.0,6.0,25,0.00,,CLR,0.00,VWS V14.00,2013-06-30 22:22:00,
2013-06-30 15:27:00,104.5,61.7,29.70,NNW,334,0.0,6.0,25,0.00,,CLR,0.00,VWS V14.00,2013-06-30 22:27:00,
2013-06-30 15:30:00,104.7,63.0,29.70,NNW,342,1.0,6.0,26,0.00,,CLR,0.00,VWS V14.00,2013-06-30 22:30:00,
2013-06-30 15:32:00,104.7,61.8,29.70,North,1,1.0,9.0,25,0.00,,CLR,0.00,VWS V14.00,2013-06-30 22:32:00,
2013-06-30 15:36:00,105.2,64.4,29.70,NW,316,0.0,9.0,27,0.00,,CLR,0.00,VWS V14.00,2013-06-30 22:36:00,
2013-06-30 15:41:00,105.1,62.2,29.70,NW,319,0.0,9.0,25,0.00,,CLR,0.00,VWS V14.00,2013-06-30 22:41:00,
2013-06-30 15:47:00,104.9,60.8,29.70,North,350,0.0,9.0,24,0.00,,CLR,0.00,VWS V14.00,2013-06-30 22:47:00,
2013-06-30 15:51:00,105.3,62.3,29.70,NNW,330,0.0,9.0,25,0.00,,CLR,0.00,VWS V14.00,2013-06-30 22:51:00,
2013-06-30 15:56:00,104.7,61.8,29.70,North,11,0.0,9.0,25,0.00,,CLR,0.00,VWS V14.00,2013-06-30 22:56:00,
2013-06-30 16:00:00,104.4,61.6,29.69,North,359,2.0,9.0,25,0.00,,CLR,0.00,VWS V14.00,2013-06-30 23:00:00,
2013-06-30 16:02:00,104.0,61.2,29.69,NNW,332,0.0,3.0,25,0.00,,CLR,0.00,VWS V14.00,2013-06-30 23:02:00,
2013-06-30 16:07:00,104.3,60.3,29.69,NE,45,0.0,5.0,24,0.00,,CLR,0.00,VWS V14.00,2013-06-30 23:07:00,
2013-06-30 16:11:00,104.8,60.8,29.69,NNW,340,0.0,5.0,24,0.00,,CLR,0.00,VWS V14.00,2013-06-30 23:11:00,
2013-06-30 16:16:00,104.7,60.7,29.70,SW,234,0.0,5.0,24,0.00,,CLR,0.00,VWS V14.00,2013-06-30 23:16:00,
2013-06-30 16:21:00,105.0,60.9,29.69,WNW,292,0.0,5.0,24,0.00,,CLR,0.00,VWS V14.00,2013-06-30 23:21:00,
2013-06-30 16:27:00,105.0,59.7,29.69,NNE,25,0.0,5.0,23,0.00,,CLR,0.00,VWS V14.00,2013-06-30 23:27:00,
2013-06-30 16:30:00,104.6,59.4,29.69,North,1,0.0,5.0,23,0.00,,CLR,0.00,VWS V14.00,2013-06-30 23:30:00,
2013-06-30 16:32:00,104.5,59.3,29.69,North,8,0.0,3.0,23,0.00,,CLR,0.00,VWS V14.00,2013-06-30 23:32:00,
2013-06-30 16:37:00,104.5,58.1,29.69,NW,326,0.0,3.0,22,0.00,,CLR,0.00,VWS V14.00,2013-06-30 23:37:00,
2013-06-30 16:42:00,104.5,58.1,29.69,North,358,0.0,3.0,22,0.00,,CLR,0.00,VWS V14.00,2013-06-30 23:42:00,
2013-06-30 16:47:00,103.8,56.2,29.68,North,0,0.0,4.0,21,0.00,,CLR,0.00,VWS V14.00,2013-06-30 23:47:00,
2013-06-30 16:52:00,104.3,57.9,29.69,NW,307,0.0,4.0,22,0.00,,CLR,0.00,VWS V14.00,2013-06-30 23:52:00,
2013-06-30 16:57:00,104.1,56.5,29.68,North,0,0.0,4.0,21,0.00,,CLR,0.00,VWS V14.00,2013-06-30 23:57:00,
2013-06-30 17:00:00,103.8,56.2,29.69,North,0,0.0,4.0,21,0.00,,CLR,0.00,VWS V14.00,2013-07-01 00:00:00,
2013-06-30 17:01:00,103.9,56.3,29.69,North,1,0.0,4.0,21,0.00,,CLR,0.00,VWS V14.00,2013-07-01 00:01:00,
2013-06-30 17:06:00,104.1,57.8,29.68,North,356,1.0,4.0,22,0.00,,CLR,0.00,VWS V14.00,2013-07-01 00:06:00,
2013-06-30 17:11:00,103.6,58.6,29.68,North,357,0.0,4.0,23,0.00,,CLR,0.00,VWS V14.00,2013-07-01 00:11:00,
2013-06-30 17:16:00,103.3,58.3,29.68,NNW,339,1.0,4.0,23,0.00,,CLR,0.00,VWS V14.00,2013-07-01 00:16:00,
2013-06-30 17:21:00,103.2,58.2,29.68,North,2,0.0,4.0,23,0.00,,CLR,0.00,VWS V14.00,2013-07-01 00:21:00,
2013-06-30 17:27:00,102.7,59.0,29.68,North,357,2.0,4.0,24,0.00,,CLR,0.00,VWS V14.00,2013-07-01 00:27:00,
2013-06-30 17:30:00,102.3,59.8,29.68,North,0,1.0,4.0,25,0.00,,CLR,0.00,VWS V14.00,2013-07-01 00:30:00,
2013-06-30 17:31:00,102.4,59.9,29.68,North,0,0.0,2.0,25,0.00,,CLR,0.00,VWS V14.00,2013-07-01 00:31:00,
2013-06-30 17:36:00,102.0,60.7,29.68,North,0,0.0,4.0,26,0.00,,CLR,0.00,VWS V14.00,2013-07-01 00:36:00,
2013-06-30 17:41:00,101.7,61.5,29.68,NNW,344,0.0,4.0,27,0.00,,CLR,0.00,VWS V14.00,2013-07-01 00:41:00,
2013-06-30 17:47:00,101.8,61.6,29.68,North,0,0.0,4.0,27,0.00,,CLR,0.00,VWS V14.00,2013-07-01 00:47:00,
2013-06-30 17:51:00,101.1,61.0,29.68,NNW,327,0.0,4.0,27,0.00,,CLR,0.00,VWS V14.00,2013-07-01 00:51:00,
2013-06-30 17:57:00,100.9,60.8,29.68,NNW,340,1.0,4.0,27,0.00,,CLR,0.00,VWS V14.00,2013-07-01 00:57:00,
2013-06-30 18:00:00,100.5,61.5,29.68,North,0,1.0,4.0,28,0.00,,CLR,0.00,VWS V14.00,2013-07-01 01:00:00,
2013-06-30 18:02:00,100.6,61.6,29.68,North,0,1.0,7.0,28,0.00,,CLR,0.00,VWS V14.00,2013-07-01 01:02:00,
2013-06-30 18:07:00,99.6,61.7,29.67,North,350,2.0,7.0,29,0.00,,CLR,0.00,VWS V14.00,2013-07-01 01:07:00,
2013-06-30 18:12:00,98.6,62.8,29.68,North,357,0.0,7.0,31,0.00,,CLR,0.00,VWS V14.00,2013-07-01 01:12:00,
2013-06-30 18:17:00,98.0,62.2,29.68,North,0,0.0,7.0,31,0.00,,CLR,0.00,VWS V14.00,2013-07-01 01:17:00,
2013-06-30 18:22:00,97.5,63.6,29.67,North,351,0.0,7.0,33,0.00,,CLR,0.00,VWS V14.00,2013-07-01 01:22:00,
2013-06-30 18:27:00,96.7,62.9,29.68,WSW,243,1.0,7.0,33,0.00,,CLR,0.00,VWS V14.00,2013-07-01 01:27:00,
2013-06-30 18:30:00,97.2,63.3,29.68,WSW,237,0.0,7.0,33,0.00,,CLR,0.00,VWS V14.00,2013-07-01 01:30:00,
2013-06-30 18:32:00,97.0,63.2,29.67,SW,236,1.0,2.0,33,0.00,,CLR,0.00,VWS V14.00,2013-07-01 01:32:00,
2013-06-30 18:37:00,96.6,62.8,29.68,WSW,241,0.0,2.0,33,0.00,,CLR,0.00,VWS V14.00,2013-07-01 01:37:00,
2013-06-30 18:42:00,96.3,62.5,29.67,WSW,248,0.0,2.0,33,0.00,,CLR,0.00,VWS V14.00,2013-07-01 01:42:00,
2013-06-30 18:46:00,96.1,62.4,29.67,WSW,248,0.0,2.0,33,0.00,,CLR,0.00,VWS V14.00,2013-07-01 01:46:00,
2013-06-30 18:51:00,95.7,62.9,29.68,WSW,254,0.0,2.0,34,0.00,,CLR,0.00,VWS V14.00,2013-07-01 01:51:00,
2013-06-30 18:56:00,94.9,63.0,29.67,WSW,254,0.0,2.0,35,0.00,,CLR,0.00,VWS V14.00,2013-07-01 01:56:00,
2013-06-30 19:00:00,95.2,62.4,29.67,WSW,254,0.0,2.0,34,0.00,,CLR,0.00,VWS V14.00,2013-07-01 02:00:00,
2013-06-30 19:01:00,94.9,63.8,29.68,WSW,254,0.0,0.0,36,0.00,,CLR,0.00,VWS V14.00,2013-07-01 02:01:00,
2013-06-30 19:06:00,94.5,61.8,29.67,WSW,253,1.0,3.0,34,0.00,,CLR,0.00,VWS V14.00,2013-07-01 02:06:00,
2013-06-30 19:11:00,94.8,60.4,29.68,SSW,194,1.0,4.0,32,0.00,,CLR,0.00,VWS V14.00,2013-07-01 02:11:00,
2013-06-30 19:16:00,94.5,61.0,29.67,SSW,204,1.0,4.0,33,0.00,,CLR,0.00,VWS V14.00,2013-07-01 02:16:00,
2013-06-30 19:21:00,94.1,60.6,29.67,SSW,205,0.0,4.0,33,0.00,,CLR,0.00,VWS V14.00,2013-07-01 02:21:00,
2013-06-30 19:26:00,93.4,60.0,29.67,SSW,211,0.0,4.0,33,0.00,,CLR,0.00,VWS V14.00,2013-07-01 02:26:00,
2013-06-30 19:30:00,93.0,61.3,29.67,SSW,196,0.0,4.0,35,0.00,,CLR,0.00,VWS V14.00,2013-07-01 02:30:00,
2013-06-30 19:31:00,92.8,62.0,29.67,SSW,195,0.0,0.0,36,0.00,,CLR,0.00,VWS V14.00,2013-07-01 02:31:00,
2013-06-30 19:37:00,92.7,62.6,29.67,SSW,196,0.0,2.0,37,0.00,,CLR,0.00,VWS V14.00,2013-07-01 02:37:00,
2013-06-30 19:41:00,92.3,62.3,29.67,SSW,209,2.0,7.0,37,0.00,,CLR,0.00,VWS V14.00,2013-07-01 02:41:00,
2013-06-30 19:46:00,92.0,62.0,29.67,SW,215,0.0,7.0,37,0.00,,CLR,0.00,VWS V14.00,2013-07-01 02:46:00,
2013-06-30 19:51:00,91.5,61.6,29.67,SSW,209,0.0,7.0,37,0.00,,CLR,0.00,VWS V14.00,2013-07-01 02:51:00,
2013-06-30 19:56:00,90.6,61.5,29.67,SSW,209,0.0,7.0,38,0.00,,CLR,0.00,VWS V14.00,2013-07-01 02:56:00,
2013-06-30 20:00:00,90.7,62.4,29.67,SSW,209,3.0,7.0,39,0.00,,CLR,0.00,VWS V14.00,2013-07-01 03:00:00,
2013-06-30 20:01:00,90.4,61.4,29.67,SSW,210,0.0,3.0,38,0.00,,CLR,0.00,VWS V14.00,2013-07-01 03:01:00,
2013-06-30 20:06:00,90.5,61.5,29.68,SSW,210,0.0,3.0,38,0.00,,CLR,0.00,VWS V14.00,2013-07-01 03:06:00,
2013-06-30 20:11:00,89.9,61.7,29.67,SSW,210,0.0,3.0,39,0.00,,CLR,0.00,VWS V14.00,2013-07-01 03:11:00,
2013-06-30 20:16:00,88.8,62.8,29.68,SSW,210,0.0,3.0,42,0.00,,CLR,0.00,VWS V14.00,2013-07-01 03:16:00,
2013-06-30 20:21:00,88.0,62.0,29.68,SSW,210,0.0,3.0,42,0.00,,CLR,0.00,VWS V14.00,2013-07-01 03:21:00,
2013-06-30 20:26:00,86.9,61.7,29.68,SSW,210,0.0,3.0,43,0.00,,CLR,0.00,VWS V14.00,2013-07-01 03:26:00,
2013-06-30 20:30:00,86.9,64.3,29.68,SSW,210,0.0,3.0,47,0.00,,CLR,0.00,VWS V14.00,2013-07-01 03:30:00,
2013-06-30 20:31:00,86.7,64.1,29.67,SSW,211,1.0,1.0,47,0.00,,CLR,0.00,VWS V14.00,2013-07-01 03:31:00,
2013-06-30 20:32:00,86.7,64.1,29.67,SSW,211,1.0,1.0,47,0.00,,CLR,0.00,VWS V14.00,2013-07-01 03:32:00,
2013-06-30 20:37:00,85.7,63.8,29.68,SSW,210,0.0,1.0,48,0.00,,CLR,0.00,VWS V14.00,2013-07-01 03:37:00,
2013-06-30 20:42:00,84.9,63.0,29.68,SSW,210,0.0,1.0,48,0.00,,CLR,0.00,VWS V14.00,2013-07-01 03:42:00,
2013-06-30 20:47:00,84.6,63.9,29.68,SSW,211,0.0,1.0,50,0.00,,CLR,0.00,VWS V14.00,2013-07-01 03:47:00,
2013-06-30 20:52:00,83.8,64.3,29.68,SSW,211,0.0,1.0,52,0.00,,CLR,0.00,VWS V14.00,2013-07-01 03:52:00,
2013-06-30 20:57:00,83.6,64.7,29.69,SSW,210,0.0,1.0,53,0.00,,CLR,0.00,VWS V14.00,2013-07-01 03:57:00,
2013-06-30 21:00:00,83.2,64.3,29.68,SSW,211,0.0,1.0,53,0.00,,CLR,0.00,VWS V14.00,2013-07-01 04:00:00,
2013-06-30 21:01:00,82.9,64.0,29.69,SSW,210,0.0,0.0,53,0.00,,CLR,0.00,VWS V14.00,2013-07-01 04:01:00,
2013-06-30 21:06:00,82.4,64.1,29.68,SSW,211,0.0,0.0,54,0.00,,CLR,0.00,VWS V14.00,2013-07-01 04:06:00,
2013-06-30 21:11:00,82.2,63.9,29.69,SSW,211,0.0,0.0,54,0.00,,CLR,0.00,VWS V14.00,2013-07-01 04:11:00,
2013-06-30 21:16:00,81.5,64.3,29.69,SSW,210,0.0,0.0,56,0.00,,CLR,0.00,VWS V14.00,2013-07-01 04:16:00,
2013-06-30 21:21:00,81.0,63.8,29.69,SSW,210,0.0,0.0,56,0.00,,CLR,0.00,VWS V14.00,2013-07-01 04:21:00,
2013-06-30 21:26:00,80.7,64.1,29.69,SSW,211,0.0,0.0,57,0.00,,CLR,0.00,VWS V14.00,2013-07-01 04:26:00,
2013-06-30 21:30:00,80.8,63.7,29.69,SSW,211,0.0,0.0,56,0.00,,CLR,0.00,VWS V14.00,2013-07-01 04:30:00,
2013-06-30 21:31:00,80.5,63.4,29.69,SSW,211,0.0,0.0,56,0.00,,CLR,0.00,VWS V14.00,2013-07-01 04:31:00,
2013-06-30 21:36:00,80.2,63.1,29.69,SSW,210,0.0,0.0,56,0.00,,CLR,0.00,VWS V14.00,2013-07-01 04:36:00,
2013-06-30 21:41:00,79.9,63.3,29.69,SSW,210,0.0,0.0,57,0.00,,CLR,0.00,VWS V14.00,2013-07-01 04:41:00,
2013-06-30 21:46:00,79.3,63.3,29.70,SSW,211,0.0,0.0,58,0.00,,CLR,0.00,VWS V14.00,2013-07-01 04:46:00,
2013-06-30 21:51:00,79.1,63.6,29.70,SSW,211,0.0,0.0,59,0.00,,CLR,0.00,VWS V14.00,2013-07-01 04:51:00,
2013-06-30 21:56:00,78.8,63.3,29.70,SSW,210,0.0,0.0,59,0.00,,CLR,0.00,VWS V14.00,2013-07-01 04:56:00,
2013-06-30 22:00:00,78.7,64.1,29.70,SSW,210,0.0,0.0,61,0.00,,CLR,0.00,VWS V14.00,2013-07-01 05:00:00,
2013-06-30 22:01:00,78.8,63.8,29.70,SSW,211,0.0,0.0,60,0.00,,CLR,0.00,VWS V14.00,2013-07-01 05:01:00,
2013-06-30 22:06:00,78.5,63.0,29.70,SSW,211,0.0,1.0,59,0.00,,CLR,0.00,VWS V14.00,2013-07-01 05:06:00,
2013-06-30 22:11:00,78.2,63.2,29.70,SSW,211,0.0,1.0,60,0.00,,CLR,0.00,VWS V14.00,2013-07-01 05:11:00,
2013-06-30 22:16:00,77.6,63.1,29.70,SSW,211,0.0,1.0,61,0.00,,CLR,0.00,VWS V14.00,2013-07-01 05:16:00,
2013-06-30 22:21:00,77.0,62.5,29.70,SSW,211,0.0,1.0,61,0.00,,CLR,0.00,VWS V14.00,2013-07-01 05:21:00,
2013-06-30 22:26:00,76.3,61.9,29.70,SW,218,0.0,1.0,61,0.00,,CLR,0.00,VWS V14.00,2013-07-01 05:26:00,
2013-06-30 22:30:00,76.4,62.0,29.70,SW,218,0.0,1.0,61,0.00,,CLR,0.00,VWS V14.00,2013-07-01 05:30:00,
2013-06-30 22:31:00,76.3,61.9,29.70,SW,217,0.0,1.0,61,0.00,,CLR,0.00,VWS V14.00,2013-07-01 05:31:00,
2013-06-30 22:36:00,75.9,62.9,29.70,SW,217,0.0,1.0,64,0.00,,CLR,0.00,VWS V14.00,2013-07-01 05:36:00,
2013-06-30 22:41:00,75.3,61.8,29.71,NW,306,0.0,2.0,63,0.00,,CLR,0.00,VWS V14.00,2013-07-01 05:41:00,
2013-06-30 22:46:00,75.0,61.6,29.70,NW,315,0.0,2.0,63,0.00,,CLR,0.00,VWS V14.00,2013-07-01 05:46:00,
2013-06-30 22:51:00,74.4,61.0,29.71,NW,321,0.0,2.0,63,0.00,,CLR,0.00,VWS V14.00,2013-07-01 05:51:00,
2013-06-30 22:56:00,74.0,60.6,29.70,WNW,300,0.0,2.0,63,0.00,,CLR,0.00,VWS V14.00,2013-07-01 05:56:00,
2013-06-30 23:00:00,73.8,60.4,29.71,WNW,291,0.0,2.0,63,0.00,,CLR,0.00,VWS V14.00,2013-07-01 06:00:00,
2013-06-30 23:01:00,73.8,60.4,29.70,WNW,292,0.0,0.0,63,0.00,,CLR,0.00,VWS V14.00,2013-07-01 06:01:00,
2013-06-30 23:06:00,73.1,59.8,29.70,WNW,294,0.0,1.0,63,0.00,,CLR,0.00,VWS V14.00,2013-07-01 06:06:00,
2013-06-30 23:11:00,73.1,60.2,29.71,NW,310,0.0,2.0,64,0.00,,CLR,0.00,VWS V14.00,2013-07-01 06:11:00,
2013-06-30 23:16:00,72.8,59.9,29.70,NW,312,0.0,2.0,64,0.00,,CLR,0.00,VWS V14.00,2013-07-01 06:16:00,
2013-06-30 23:21:00,72.2,59.8,29.71,NW,314,0.0,2.0,65,0.00,,CLR,0.00,VWS V14.00,2013-07-01 06:21:00,
2013-06-30 23:26:00,71.5,59.1,29.71,NNW,345,0.0,2.0,65,0.00,,CLR,0.00,VWS V14.00,2013-07-01 06:26:00,
2013-06-30 23:30:00,71.5,59.6,29.71,NNW,346,1.0,2.0,66,0.00,,CLR,0.00,VWS V14.00,2013-07-01 06:30:00,
2013-06-30 23:31:00,71.5,60.0,29.71,NNW,346,0.0,1.0,67,0.00,,CLR,0.00,VWS V14.00,2013-07-01 06:31:00,
2013-06-30 23:36:00,71.1,59.6,29.71,NNW,346,0.0,1.0,67,0.00,,CLR,0.00,VWS V14.00,2013-07-01 06:36:00,
2013-06-30 23:41:00,71.1,59.6,29.71,NNW,347,0.0,1.0,67,0.00,,CLR,0.00,VWS V14.00,2013-07-01 06:41:00,
2013-06-30 23:46:00,71.0,59.5,29.70,NNW,347,0.0,1.0,67,0.00,,CLR,0.00,VWS V14.00,2013-07-01 06:46:00,
2013-06-30 23:51:00,70.6,59.5,29.70,NNW,346,0.0,1.0,68,0.00,,CLR,0.00,VWS V14.00,2013-07-01 06:51:00,
2013-06-30 23:56:00,70.4,59.3,29.71,NNW,346,0.0,1.0,68,0.00,,CLR,0.00,VWS V14.00,2013-07-01 06:56:00,